Weather History for Gary, IN

Change the Weather History Date:

Sunday, September 15, 2013

  Actual Average Record
Temperature  
Mean Temperature 60 °F -  
Max Temperature 65 °F 74 °F 87 °F (2004)
Min Temperature 54 °F 56 °F 39 °F (1999)
Degree Days  
Heating Degree Days 5    
Growing Degree Days 10 (Base 50)    
Moisture  
Dew Point 51 °F    
Average Humidity 74    
Maximum Humidity 94    
Minimum Humidity 56    
Precipitation  
Precipitation 0.01 in - - ()
Sea Level Pressure  
Sea Level Pressure 30.07 in    
Wind  
Wind Speed 3 mph (SSE)    
Max Wind Speed 8 mph    
Max Gust Speed -    
Visibility 9 miles    
Events Rain    
Averages and records for this station are not official NWS values.
T = Trace of Precipitation, MM = Missing Value Source: NWS Daily Summary

Daily Weather History Graph

Daily Weather History Graph

Search for Another Location

Airport:

Trip Planner

Search our weather history database for the weather conditions in past years. The results will help you decide how hot, cold, wet, or windy it might be!

Date:

Astronomy

Sep. 15, 2013 Rise Set
Actual Time 6:30 AM CDT 6:58 PM CDT
Civil Twilight 6:02 AM CDT 7:26 PM CDT
Nautical Twilight 5:29 AM CDT 7:59 PM CDT
Astronomical Twilight 4:55 AM CDT 8:32 PM CDT
Moon 4:28 PM CDT (9/15) 2:04 AM CDT (9/15)
Length of Visible Light 13h 24m
Length of Day
12h 28m
Waxing Gibbous, 82% of the Moon is Illuminated
Sep 15
Waxing Gibbous
Sep 19
Full
Sep 26
Last Quarter
Oct 4
New
Oct 11
First Quarter

Hourly Weather History & Observations

Time (CDT) Temp. Dew Point Humidity Pressure Visibility Wind Dir Wind Speed Gust Speed Precip Events Conditions
12:15 AM 56.8 °F 42.1 °F 58% 30.06 in 10.0 mi SSE 4.6 mph - N/A   Clear
12:35 AM 57.0 °F 41.7 °F 57% 30.06 in 10.0 mi South 3.5 mph - N/A   Clear
12:55 AM 55.9 °F 42.1 °F 60% 30.06 in 10.0 mi Calm Calm - N/A   Clear
1:15 AM 54.1 °F 42.8 °F 66% 30.06 in 10.0 mi SSE 3.5 mph - N/A   Clear
1:35 AM 55.2 °F 42.8 °F 63% 30.06 in 10.0 mi SSE 3.5 mph - N/A   Clear
1:55 AM 55.4 °F 43.0 °F 63% 30.05 in 10.0 mi SSE 4.6 mph - N/A   Clear
2:15 AM 55.6 °F 43.0 °F 63% 30.05 in 10.0 mi SSE 3.5 mph - N/A   Clear
2:35 AM 55.9 °F 43.0 °F 62% 30.05 in 10.0 mi SSE 3.5 mph - N/A   Clear
2:55 AM 55.8 °F 43.0 °F 62% 30.06 in 10.0 mi South 3.5 mph - N/A   Clear
3:15 AM 56.3 °F 43.3 °F 62% 30.06 in 10.0 mi SSE 3.5 mph - N/A   Clear
3:35 AM 56.7 °F 43.0 °F 60% 30.06 in 10.0 mi Calm Calm - N/A   Clear
3:55 AM 56.8 °F 43.5 °F 61% 30.07 in 10.0 mi Calm Calm - N/A   Clear
4:15 AM 57.2 °F 43.7 °F 61% 30.07 in 10.0 mi Calm Calm - N/A   Clear
4:35 AM 58.3 °F 43.7 °F 58% 30.07 in 10.0 mi South 3.5 mph - N/A   Clear
5:45 AM 57.2 °F 44.6 °F 63% 30.07 in 20.0 mi South 5.8 mph - N/A   Mostly Cloudy
6:45 AM 57.2 °F 44.6 °F 63% 30.07 in 20.0 mi South 6.9 mph - N/A   Mostly Cloudy
7:45 AM 57.2 °F 46.4 °F 67% 30.08 in 20.0 mi Calm Calm - N/A   Overcast
8:45 AM 59.0 °F 46.4 °F 63% 30.06 in 20.0 mi South 4.6 mph - N/A   Overcast
9:45 AM 59.0 °F 48.2 °F 67% 30.07 in 10.0 mi Calm Calm - N/A   Overcast
10:45 AM 62.6 °F 48.2 °F 59% 30.05 in 12.0 mi South 4.6 mph - N/A   Overcast
11:45 AM 64.4 °F 48.2 °F 56% 30.05 in 12.0 mi South 8.1 mph - N/A   Overcast
12:45 PM 62.6 °F 55.4 °F 77% 30.03 in 6.0 mi Variable 4.6 mph - N/A Rain Light Rain
1:45 PM 62.6 °F 57.2 °F 82% 30.01 in 6.0 mi Calm Calm - N/A Rain Light Rain
2:45 PM 64.4 °F 59.0 °F 83% 30.00 in 10.0 mi Calm Calm - N/A   Overcast
3:45 PM 66.2 °F 57.2 °F 73% 30.04 in 10.0 mi NE 5.8 mph - N/A   Overcast
4:45 PM 62.6 °F 59.0 °F 88% 30.04 in 2.5 mi Calm Calm - N/A Rain Rain
5:45 PM 62.6 °F 59.0 °F 88% 30.05 in 4.0 mi Calm Calm - N/A Rain Rain
6:45 PM 62.6 °F 60.8 °F 94% 30.05 in 2.0 mi Calm Calm - N/A Rain Rain
8:45 PM 60.8 °F 59.0 °F 94% 30.10 in 4.0 mi Calm Calm - N/A Rain Light Rain
9:15 PM 60.8 °F 58.6 °F 93% 30.11 in 4.0 mi East 5.8 mph - N/A Rain Rain
9:35 PM 61.0 °F 59.0 °F 93% 30.12 in 4.0 mi Calm Calm - N/A   Drizzle
9:45 PM 60.8 °F 59.0 °F 94% 30.10 in 4.0 mi Calm Calm - N/A Rain Light Rain
9:55 PM 60.8 °F 58.5 °F 92% 30.12 in 5.0 mi East 6.9 mph - N/A   Drizzle
10:15 PM 61.2 °F 58.5 °F 91% 30.12 in 7.0 mi Calm Calm - N/A   Overcast
10:35 PM 61.2 °F 58.6 °F 91% 30.13 in 5.0 mi Calm Calm - N/A   Overcast
10:55 PM 61.2 °F 59.0 °F 93% 30.13 in 5.0 mi SE 3.5 mph - N/A   Overcast
11:15 PM 61.0 °F 58.3 °F 91% 30.14 in 5.0 mi Calm Calm - N/A   Overcast
11:35 PM 60.8 °F 58.1 °F 91% 30.15 in 5.0 mi East 4.6 mph - N/A   Overcast
11:55 PM 60.4 °F 57.7 °F 91% 30.15 in 7.0 mi Calm Calm - N/A   Overcast